Location: Keewatin
(47.4004°N, 93.0827°W)
Time: 22:32:43
(UTC+00:00)

KKS-1 - Visible Passes

Search period start: 21 February 2020 00:00
Search period end: 02 March 2020 00:00
Orbit: 636 x 650 km, 98.3° (Epoch: 21 February)

Date Brightness Start Highest point End Pass type
(mag) Time Alt. Az. Time Alt. Az. Time Alt. Az.
21 Feb ? 11:33:19 10° E 11:35:30 14° ENE 11:37:41 10° NNE visible
22 Feb ? 11:56:22 10° ESE 11:59:43 21° ENE 12:03:05 10° NNE visible
23 Feb ? 12:20:01 10° SE 12:24:02 34° ENE 12:28:03 10° N visible
24 Feb ? 03:20:28 10° N 03:20:28 10° N 03:20:28 10° N visible
25 Feb ? 02:07:48 10° NNE 02:08:01 11° NNE 02:08:01 11° NNE visible
25 Feb ? 11:34:45 10° E 11:36:58 14° ENE 11:39:10 10° NNE visible
26 Feb ? 02:32:19 10° N 02:33:16 16° N 02:33:16 16° N visible
26 Feb ? 11:57:49 10° ESE 12:01:11 22° ENE 12:04:33 10° NNE visible
27 Feb ? 01:20:49 10° NE 01:20:51 10° NE 01:20:51 10° NE visible
27 Feb ? 02:57:02 10° N 02:58:32 19° NNW 02:58:32 19° NNW visible
27 Feb ? 12:21:28 10° SE 12:25:29 35° ENE 12:29:31 10° N visible
28 Feb ? 01:44:54 10° NNE 01:46:07 18° NE 01:46:07 18° NE visible
28 Feb ? 03:21:56 10° N 03:23:49 19° NNW 03:23:49 19° NNW visible
29 Feb ? 02:09:15 10° NNE 02:11:25 28° NNE 02:11:25 28° NNE visible
29 Feb ? 03:47:14 10° NNW 03:49:06 14° NW 03:49:06 14° NW visible
29 Feb ? 11:36:09 10° E 11:38:25 14° ENE 11:40:40 10° NNE visible
01 Mar ? 00:58:38 10° NE 00:59:03 11° ENE 00:59:03 11° ENE visible
01 Mar ? 02:33:47 10° N 02:36:45 40° N 02:36:45 40° N visible
01 Mar ? 11:59:14 10° ESE 12:02:38 22° ENE 12:06:02 10° NNE visible
